Regional Weather Roundup
Issued by NWS

Home | Current Version | Previous Version | Text Only | Print | Product List | Glossary Off
Versions: 1 2 3 4 5 6 7 8 9 10 11 12 13 14 15 16 17 18 19 20 21 22 23 24 25 26 27 28 29 30 31 32 33 34 35 36 37 38 39 40 41 42 43 44 45 46 47 48 49 50

000
ASUS43 KDTX 310101
RWRMI
MICHIGAN HOURLY REGIONAL WEATHER ROUNDUP
NATIONAL WEATHER SERVICE DETROIT/PONTIAC MI
900 PM EDT SAT JUL 30 2016

NOTE: "FAIR" INDICATES FEW OR NO CLOUDS BELOW 12,000 FEET WITH NO
SIGNIFICANT WEATHER AND/OR OBSTRUCTION TO VISIBILITY.

MIZ047>049-052>055-059>063-066>070-074>076-081>083-310200-
SOUTHEAST LOWER MICHIGAN

CITY           SKY/WX    TMP DP  RH WIND       PRES   REMARKS
ADRIAN         CLOUDY    69  68  96 NE7       29.98S
ALMA           CLOUDY    67  66  95 N8        30.03S
ANN ARBOR      LGT RAIN  71  69  93 N7        29.98R
BAD AXE        LGT RAIN  67  61  82 N3        30.03S
CARO           CLOUDY    66  63  89 NE3       30.01S
DETROIT CITY   CLOUDY    73  66  78 N10       29.98R
DETROIT        CLOUDY    74  65  73 NE10      29.97R
FLINT          PTCLDY    71  64  78 NE7       30.01R
GROSSE ILE     RAIN      73  67  82 E8        29.96R
HILLSDALE      RAIN      70  66  88 SE6       29.99R
HOWELL         MOCLDY    69  66  90 NE3       30.00S

CITY           SKY/WX    TMP DP  RH WIND       PRES   REMARKS
JACKSON        CLOUDY    71  68  90 NE7       29.99S
LAMBERTVILLE   LGT RAIN  74  69  83 CALM      29.97R
LANSING        CLOUDY    69  64  84 NE7       30.01R
LAPEER         CLOUDY    69  63  81 N5        30.01R
MASON          CLOUDY    69  65  86 N6        30.00S
MONROE         CLOUDY    72  71  96 N12       29.95S
MT. CLEMENS    MOCLDY    71  65  82 N7        29.96R
PONTIAC        CLOUDY    71  66  84 NE6       29.99R
PORT HOPE        N/A     71  63  75 NE14      30.01S
PORT HURON     CLOUDY    70  64  83 N5        29.99R
TRI CITIES     CLOUDY    67  65  93 NE10      30.02S
MIDLAND        LGT RAIN  66  64  94 N3        30.02F
TROY           CLOUDY    73  65  75 N3        30.00S
SAGINAW HB     CLOUDY    66  63  88 NE7       30.01S
$$
MIZ043>046-050>051-056>058-064>065-071>073-077>080-310200-
SOUTHWEST LOWER MICHIGAN

CITY           SKY/WX    TMP DP  RH WIND       PRES   REMARKS
BATTLE CREEK   CLOUDY    68  67  96 N9        30.00R
BENTON HARBOR  MOCLDY    72  64  76 NE5       29.98R
BIG RAPIDS     CLOUDY    70  66  87 E3        30.02S
COLDWATER      MOCLDY    71  68  90 NE7       29.98R
FREMONT        CLOUDY    71  67  88 E3        30.01S
HOLLAND        CLOUDY    71  64  78 E3        30.01R
GRAND RAPIDS   CLOUDY    69  64  84 NE9       30.01R
IONIA          CLOUDY    66  63  89 NE7       30.02R
KALAMAZOO      CLOUDY    71  65  81 NE5       29.99R
LUDINGTON      CLOUDY    71  64  79 CALM      30.01S
MARSHALL       CLOUDY    71  68  91 CALM      29.99R
MOUNT PLEASANT CLOUDY    68  63  84 CALM      30.03R
MUSKEGON       CLOUDY    73  65  75 E6        30.01R
SOUTH HAVEN    PTCLDY    69  66  89 NE5       29.99S
$$
MIZ016>042-310200-
NORTHERN LOWER MICHIGAN

CITY           SKY/WX    TMP DP  RH WIND       PRES   REMARKS
ALPENA         PTCLDY    69  54  58 CALM      30.06S
BEAVER ISLAND  CLEAR     70  58  65 NE7       30.06S
BELLAIRE       CLEAR     74  46  36 NE7       30.03R
CADILLAC       CLOUDY    68  61  76 E3        30.04S
CHARLEVOIX     CLEAR     73  50  43 NE10      30.07S
FRANKFORT      CLOUDY    74  54  49 CALM      30.02R
GAYLORD        CLEAR     72  45  37 NE8       30.07R
GRAYLING       CLOUDY    73  55  53 E9        30.06R
HARBOR SPRINGS CLEAR     70  50  49 NE6       30.06R
HOUGHTON LAKE  CLOUDY    68  57  68 E10       30.06R
MANISTEE       CLOUDY    72  64  76 CALM      30.01S
OSCODA         CLOUDY    69  56  64 NE6       30.04S
PELLSTON       CLOUDY    71  49  45 E5        30.07S
ROGERS CITY    CLOUDY    68  55  62 NE3       30.07S
TRAVERSE CITY  MOCLDY    77  60  55 VRB6      29.99R
$$
MIZ007>008-015-310200-
EASTERN UPPER MICHIGAN

CITY           SKY/WX    TMP DP  RH WIND       PRES   REMARKS
KINROSS        CLEAR     70  57  63 SW3       30.08S
MACKINAC ISLAN CLEAR     67  55  66 E5        30.07S
S. S. MARIE    CLEAR     73  55  53 S3        30.07R
$$
MIZ004>006-011>014-085-310200-
CENTRAL UPPER MICHIGAN

CITY           SKY/WX    TMP DP  RH WIND       PRES   REMARKS
MANISTIQUE     CLEAR     69  58  69 CALM      30.06S
ESCANABA       CLEAR     72  52  49 NE3       30.04S
MENOMINEE      CLEAR    N/A N/A N/A NE5       30.04S
SAWYER-GWINN   CLEAR     72  55  56 E7        30.07S
$$
MIZ001>003-009>011-084-310200-
WESTERN UPPER MICHIGAN

CITY           SKY/WX    TMP DP  RH WIND       PRES   REMARKS
IRON MOUNTAIN  CLEAR     70  50  49 SE5       30.05S
HOUGHTON       CLEAR     67  56  67 E7        30.05S
COPPER HARBOR    N/A     69  55  60 VRB6      30.04S
IRONWOOD       PTCLDY    72  61  68 NE5       30.00S
$$

ABBREVIATIONS USED IN REMARKS
   TC - TEMPERATURE IN CELSIUS
  WCI - WIND CHILL INDEX
   HX - HEAT INDEX
  VSB - VISIBILITY





USA.gov is the U.S. government's official web portal to all federal, state and local government web resources and services.